EW9240 Weather Reports


Display with metric or nautical units.
time (UTC)temp
F
wind
direction
speed
MPH
gust
MPH
rain 1hr
in
rain 24hr
in
rain mn
in
humidity
%
barometer
mb
20260510081510 56 296 0.0 0.0 0.00 0.00 0.00 79 1013.7
20260510080104 57 296 0.0 0.0 0.00 0.00 0.00 79 1013.7
20260510074536 58 296 0.0 0.0 0.00 0.00 0.00 77 1013.8
20260510073011 59 296 0.0 0.0 0.00 0.00 0.00 76 1013.7
20260510071602 59 296 0.0 0.0 0.00 0.00 0.00 75 1013.6
20260510070035 60 296 0.0 0.0 0.00 0.00 0.00 74 1013.6
20260510064524 61 296 0.0 0.0 0.00 0.00 0.00 73 1013.6
20260510063107 61 296 0.0 0.0 0.00 0.00 0.00 72 1013.6
20260510061545 61 296 0.0 0.0 0.00 0.00 0.00 71 1013.5
20260510060045 62 296 0.0 0.0 0.00 0.00 0.00 70 1013.5
20260510054513 62 296 0.0 0.0 0.00 0.00 0.00 69 1013.4
20260510053120 63 296 0.0 0.0 0.00 0.00 0.00 67 1013.3
20260510051620 63 296 0.0 0.0 0.00 0.00 0.00 66 1013.4
20260510050023 64 296 0.0 0.0 0.00 0.00 0.00 65 1013.3
20260510044511 65 296 0.0 0.0 0.00 0.00 0.00 64 1013.3
20260510043130 65 296 0.0 0.0 0.00 0.00 0.00 63 1013.1
20260510041535 66 296 0.0 0.0 0.00 0.00 0.00 61 1012.8
20260510040004 67 296 0.0 0.0 0.00 0.00 0.00 60 1012.6
20260510034555 68 296 0.0 0.0 0.00 0.00 0.00 58 1012.5
20260510033039 69 270 0.0 0.0 0.00 0.00 0.00 56 1012.4
20260510031513 70 270 0.0 0.0 0.00 0.00 0.00 53 1012.3
20260510030103 72 270 0.0 1.0 0.00 0.00 0.00 51 1012.3
20260510024544 73 284 0.0 2.0 0.00 0.00 0.00 47 1012.3
20260510023034 74 266 1.0 3.0 0.00 0.00 0.00 43 1012.2
20260510021542 75 275 0.0 3.0 0.00 0.00 0.00 39 1012.3
20260510020011 75 276 0.0 3.0 0.00 0.00 0.00 36 1012.3
20260510014604 76 274 0.0 4.0 0.00 0.00 0.00 34 1012.5
20260510013042 76 266 1.0 4.0 0.00 0.00 0.00 31 1012.6
20260510011522 76 305 0.0 3.0 0.00 0.00 0.00 34 1012.7
20260510010006 76 284 1.0 4.0 0.00 0.00 0.00 34 1012.7
20260510004542 76 290 1.0 7.0 0.00 0.00 0.00 36 1012.9
20260510003028 76 290 0.0 4.0 0.00 0.00 0.00 36 1012.8
20260510001506 77 300 1.0 8.0 0.00 0.00 0.00 37 1013.0
20260510000050 76 271 1.0 4.0 0.00 0.00 0.00 38 1013.1
20260509234539 76 360 1.0 6.0 0.00 0.00 0.00 39 1013.2
20260509233103 76 261 1.0 6.0 0.00 0.00 0.00 39 1013.4
20260509231544 75 300 2.0 5.0 0.00 0.00 0.00 42 1013.4
20260509230015 75 300 1.0 5.0 0.00 0.00 0.00 43 1013.9
20260509224554 75 290 3.0 5.0 0.00 0.00 0.00 43 1014.1
20260509223035 74 269 2.0 6.0 0.00 0.00 0.00 45 1014.4
20260509221525 74 288 2.0 6.0 0.00 0.00 0.00 49 1014.5
20260509220051 74 293 2.0 7.0 0.00 0.00 0.00 50 1014.7
20260509214526 73 266 3.0 6.0 0.00 0.00 0.00 52 1014.9
20260509213120 73 275 0.0 6.0 0.00 0.00 0.00 54 1015.0
20260509211611 72 273 1.0 8.0 0.00 0.00 0.00 55 1015.0
20260509210025 71 278 3.0 8.0 0.00 0.00 0.00 55 1015.2
20260509204549 71 276 3.0 6.0 0.00 0.00 0.00 53 1015.3
20260509203032 70 271 0.0 5.0 0.00 0.00 0.00 56 1015.5
20260509201552 70 312 2.0 6.0 0.00 0.00 0.00 58 1015.8
20260509200034 69 308 3.0 6.0 0.00 0.00 0.00 59 1016.1
20260509194509 68 295 1.0 6.0 0.00 0.00 0.00 58 1016.2
20260509193052 67 284 1.0 6.0 0.00 0.00 0.00 61 1016.4
20260509191528 67 302 2.0 6.0 0.00 0.00 0.00 63 1016.6
20260509190009 66 288 2.0 6.0 0.00 0.00 0.00 64 1016.8
20260509184558 65 279 2.0 4.0 0.00 0.00 0.00 67 1017.1
20260509183039 65 262 0.0 4.0 0.00 0.00 0.00 66 1017.2
20260509181628 64 349 1.0 5.0 0.00 0.00 0.00 68 1017.4
20260509180040 63 286 0.0 4.0 0.00 0.00 0.00 69 1017.4
20260509174513 62 284 1.0 4.0 0.00 0.00 0.00 69 1017.7
20260509173110 62 267 0.0 3.0 0.00 0.00 0.00 71 1017.8
20260509171542 61 288 2.0 4.0 0.00 0.00 0.00 72 1018.2
20260509170031 60 283 0.0 3.0 0.00 0.00 0.00 73 1018.2
20260509164506 60 300 1.0 4.0 0.00 0.00 0.00 75 1018.5
20260509163056 59 310 0.0 4.0 0.00 0.00 0.00 76 1018.8
20260509161529 59 333 0.0 2.0 0.00 0.00 0.00 75 1019.1
20260509160004 58 312 0.0 4.0 0.00 0.00 0.00 77 1019.0
20260509154553 57 316 0.0 3.0 0.00 0.00 0.00 78 1019.0
20260509153026 57 333 0.0 2.0 0.00 0.00 0.00 78 1019.3
20260509151508 56 293 0.0 1.0 0.00 0.00 0.00 78 1019.5
20260509144535 57 127 0.0 1.0 0.00 0.00 0.00 74 1019.5
20260509143029 55 127 0.0 1.0 0.00 0.00 0.00 78 1019.5
20260509141608 53 240 0.0 0.0 0.00 0.00 0.00 81 1019.4
20260509140036 51 239 0.0 0.0 0.00 0.00 0.00 84 1019.4
20260509134516 49 265 0.0 0.0 0.00 0.00 0.00 88 1019.3
20260509133104 48 265 0.0 0.0 0.00 0.00 0.00 91 1019.3
20260509131543 46 265 0.0 0.0 0.00 0.00 0.00 91 1019.2
20260509130023 46 265 0.0 0.0 0.00 0.00 0.00 90 1019.2
20260509124613 46 265 0.0 0.0 0.00 0.00 0.00 90 1019.3
20260509123048 46 265 0.0 0.0 0.00 0.00 0.00 90 1019.4
20260509121528 46 265 0.0 0.0 0.00 0.00 0.00 90 1019.3
20260509120014 47 265 0.0 0.0 0.00 0.00 0.00 89 1019.3
20260509114557 47 265 0.0 0.0 0.00 0.00 0.00 89 1019.3
20260509113021 47 265 0.0 0.0 0.00 0.00 0.00 89 1019.5
20260509111507 48 265 0.0 0.0 0.00 0.00 0.00 88 1019.7
20260509110056 48 265 0.0 0.0 0.00 0.00 0.00 88 1019.8
20260509104537 48 265 0.0 0.0 0.00 0.00 0.00 87 1019.8
20260509103012 49 265 0.0 0.0 0.00 0.00 0.00 87 1019.7
20260509101555 49 265 0.0 0.0 0.00 0.00 0.00 87 1019.7
20260509100036 50 265 0.0 0.0 0.00 0.00 0.00 86 1019.7
20260509094512 50 265 0.0 0.0 0.00 0.00 0.00 85 1019.9
20260509093101 51 265 0.0 0.0 0.00 0.00 0.00 84 1019.9
20260509091537 51 265 0.0 0.0 0.00 0.00 0.00 84 1020.0
20260509090013 52 265 0.0 0.0 0.00 0.00 0.00 84 1020.1
20260509084605 52 265 0.0 0.0 0.00 0.00 0.00 83 1020.3
20260509083040 53 265 0.0 0.0 0.00 0.00 0.00 82 1020.4